Stations météo

réclame
Mon MeteoGroup
Dunkerque, France (7010): Température de l'air & dewpoint: 20.08.2019 02:00:00 - 26.08.2019 02:00:00 (CEST)Dunkerque, France (7010): Vitesse du vent & gusts: 20.08.2019 02:00:00 - 26.08.2019 02:00:00 (CEST)Dunkerque, France (7010): Direction du vent: 20.08.2019 02:00:00 - 26.08.2019 02:00:00 (CEST)Dunkerque, France (7010): reduced air pressure: 20.08.2019 02:00:00 - 26.08.2019 02:00:00 (CEST)Dunkerque, France (7010): visibility: 20.08.2019 02:00:00 - 26.08.2019 02:00:00 (CEST)Dunkerque, France (7010): Quantités de précipitations: 20.08.2019 02:00:00 - 26.08.2019 02:00:00 (CEST)
Date & Time tt [°C] td [°C] ff [km/h] ff [knt] fx [km/h] fx [knt] dd ppp [hPa] vv [km] rr [mm]
26.08.2019 02:00:00 20,0 18,1 0 0 6 4 N 1019,2 8 0,0
26.08.2019 01:00:00 19,9 18,0 4 2 10 5 E 1019,4 - 0,0
26.08.2019 00:00:00 20,2 18,0 7 4 12 7 NE 1019,6 - 0,0
25.08.2019 23:00:00 20,0 17,8 6 4 11 6 ENE 1019,7 - 0,0
25.08.2019 22:00:00 20,2 17,8 8 4 11 6 NE 1019,5 - 0,0
25.08.2019 21:00:00 20,6 18,2 8 5 13 7 ENE 1019,2 - 0,0
25.08.2019 20:00:00 21,7 17,7 11 6 15 8 NE 1018,9 - 0,0
25.08.2019 19:00:00 22,9 18,2 10 5 15 8 NE 1018,7 - 0,0
25.08.2019 18:00:00 23,1 17,6 10 5 16 9 NNE 1018,7 - 0,0
25.08.2019 17:00:00 24,1 17,3 10 5 19 10 NNE 1018,7 - 0,0
25.08.2019 16:00:00 24,9 17,9 9 5 18 10 NNE 1018,8 - 0,0
25.08.2019 15:00:00 23,9 17,6 9 5 19 10 N 1018,9 - 0,0
25.08.2019 14:00:00 23,9 17,6 8 4 20 11 NNE 1018,7 18 0,0
25.08.2019 13:00:00 26,1 16,6 7 4 14 8 NE 1018,8 - 0,0
25.08.2019 12:00:00 27,9 15,2 6 3 8 4 NNE 1018,8 - 0,0
25.08.2019 11:00:00 26,5 15,5 3 2 5 3 ENE 1018,9 - 0,0
25.08.2019 10:00:00 24,6 15,8 2 1 4 2 ESE 1018,8 - 0,0
25.08.2019 09:00:00 21,6 15,2 2 1 7 4 S 1018,4 - 0,0
25.08.2019 08:00:00 19,2 14,2 3 2 5 3 SSW 1018,0 20 0,0
25.08.2019 07:00:00 18,1 14,0 3 1 8 4 S 1017,8 - 0,0
25.08.2019 06:00:00 18,6 13,9 6 4 12 6 SSW 1017,5 - 0,0
25.08.2019 05:00:00 19,3 14,5 4 2 6 3 SE 1017,5 20 0,0
25.08.2019 04:00:00 19,8 14,2 2 1 9 5 S 1017,6 - 0,0
25.08.2019 03:00:00 20,3 14,6 4 2 12 7 SSE 1017,6 - 0,0
25.08.2019 02:00:00 19,8 16,4 4 2 6 3 E 1017,8 - 0,0
25.08.2019 01:00:00 20,6 15,2 3 1 10 5 E 1017,9 - 0,0
25.08.2019 00:00:00 20,0 16,0 7 4 12 6 ESE 1017,9 - 0,0
24.08.2019 23:00:00 20,1 18,6 9 5 20 11 E 1017,9 - 0,0
24.08.2019 22:00:00 20,4 18,0 15 8 19 11 ENE 1017,9 - 0,0
24.08.2019 21:00:00 20,6 17,8 14 8 20 11 ENE 1017,7 - 0,0
24.08.2019 20:00:00 21,6 17,6 17 9 22 12 ENE 1017,7 17 0,0
24.08.2019 19:00:00 22,7 17,6 14 7 23 13 ENE 1017,8 - 0,0
24.08.2019 18:00:00 23,4 17,6 15 8 22 12 ENE 1018,1 - 0,0
24.08.2019 17:00:00 23,6 17,3 16 9 24 13 ENE 1018,4 17 0,0
24.08.2019 16:00:00 23,3 17,1 14 7 23 12 ENE 1018,9 - 0,0
24.08.2019 15:00:00 23,4 17,8 15 8 20 11 ENE 1019,1 - 0,0
24.08.2019 14:00:00 22,6 17,5 14 8 19 11 NE 1019,5 - 0,0
24.08.2019 13:00:00 23,1 17,3 11 6 15 8 NE 1020,0 - 0,0
24.08.2019 12:00:00 23,0 16,3 10 5 12 7 NE 1020,3 - 0,0
24.08.2019 11:00:00 22,0 15,1 6 4 9 5 NE 1020,4 - 0,0
24.08.2019 10:00:00 21,5 14,2 5 3 10 6 ESE 1020,5 - 0,0
24.08.2019 09:00:00 19,5 13,7 9 5 11 6 SE 1020,4 - 0,0
24.08.2019 08:00:00 17,5 13,2 8 4 11 6 ESE 1020,5 10 0,0
24.08.2019 07:00:00 16,9 12,8 8 4 12 6 E 1020,5 - 0,0
24.08.2019 06:00:00 17,8 13,5 8 4 14 8 E 1020,7 - 0,0
24.08.2019 05:00:00 18,2 13,3 9 5 14 8 E 1021,0 - 0,0
24.08.2019 04:00:00 19,0 13,8 10 5 15 8 E 1021,1 - 0,0
24.08.2019 03:00:00 18,9 14,4 9 5 16 9 E 1021,6 - 0,0
24.08.2019 02:00:00 19,4 14,2 11 6 20 11 E 1021,9 16 0,0
24.08.2019 01:00:00 19,7 14,3 16 9 27 15 ENE 1022,2 - 0,0
24.08.2019 00:00:00 18,3 14,8 14 8 18 10 E 1022,4 - 0,0
23.08.2019 23:00:00 19,1 17,2 12 6 19 10 ENE 1022,7 12 0,0
23.08.2019 22:00:00 19,3 16,7 15 8 21 11 ENE 1022,7 - 0,0
23.08.2019 21:00:00 19,5 16,3 15 8 23 12 ENE 1022,8 - 0,0
23.08.2019 20:00:00 20,1 16,1 18 10 23 12 ENE 1022,8 12 0,0
23.08.2019 19:00:00 21,0 15,1 16 9 24 13 NE 1023,1 - 0,0
23.08.2019 18:00:00 21,3 15,6 18 10 23 13 NE 1023,7 - 0,0
23.08.2019 17:00:00 21,3 15,6 15 8 21 11 NE 1024,1 12 0,0
23.08.2019 16:00:00 21,4 15,9 17 9 22 12 NE 1024,6 - 0,0
23.08.2019 15:00:00 21,4 16,4 18 10 22 12 NNE 1024,9 - 0,0
23.08.2019 14:00:00 21,3 16,0 17 9 22 12 NNE 1025,2 - 0,0
23.08.2019 13:00:00 20,7 15,5 13 7 16 9 NNE 1025,7 - 0,0
23.08.2019 12:00:00 20,5 16,1 11 6 14 8 NNE 1025,9 - 0,0
23.08.2019 11:00:00 19,6 15,5 5 3 8 4 NNE 1026,1 10 0,0
23.08.2019 10:00:00 19,2 15,5 0 0 6 4 N 1026,2 - 0,0
23.08.2019 09:00:00 16,3 13,6 5 3 9 5 S 1026,0 - 0,0
23.08.2019 08:00:00 14,2 11,9 7 4 10 5 S 1025,9 16 0,0
23.08.2019 07:00:00 13,5 11,5 5 3 11 6 S 1025,6 - 0,0
23.08.2019 06:00:00 15,1 13,0 7 4 11 6 SSW 1025,5 - 0,0
23.08.2019 05:00:00 14,1 11,8 8 5 13 7 S 1025,8 - 0,0
23.08.2019 04:00:00 14,7 12,2 8 4 15 8 SSW 1025,8 - 0,0
23.08.2019 03:00:00 15,2 12,1 10 5 16 8 SSW 1025,9 - 0,0
23.08.2019 02:00:00 15,0 11,0 12 6 18 10 SSW 1026,0 16 0,0
23.08.2019 01:00:00 14,8 9,6 6 3 13 7 SW 1026,0 - 0,0
23.08.2019 00:00:00 15,8 10,1 3 2 17 9 SW 1026,0 - 0,0
22.08.2019 23:00:00 16,7 10,3 8 5 21 11 SSW 1025,9 - 0,0
22.08.2019 22:00:00 17,7 10,6 14 8 24 13 SSW 1025,9 - 0,0
22.08.2019 21:00:00 18,6 9,9 14 8 24 13 SSW 1025,6 - 0,0
22.08.2019 20:00:00 20,0 9,5 17 9 29 16 SSW 1025,2 20 0,0
22.08.2019 19:00:00 21,1 10,0 15 8 36 19 WSW 1025,4 - 0,0
22.08.2019 18:00:00 21,0 12,7 24 13 37 20 W 1025,4 - 0,0
22.08.2019 17:00:00 20,8 12,2 25 14 45 24 W 1025,4 20 0,0
22.08.2019 16:00:00 21,0 12,9 30 16 40 22 W 1025,5 - 0,0
22.08.2019 15:00:00 20,4 12,6 25 13 37 20 WNW 1025,7 - 0,0
22.08.2019 14:00:00 20,0 12,2 24 13 32 18 W 1026,3 - 0,0
22.08.2019 13:00:00 19,6 12,6 21 11 31 17 WNW 1026,4 - 0,0
22.08.2019 12:00:00 18,8 12,5 16 9 25 13 WNW 1026,3 - 0,0
22.08.2019 11:00:00 18,4 12,8 15 8 24 13 WNW 1026,2 - 0,0
22.08.2019 10:00:00 18,0 13,5 13 7 21 11 W 1026,2 - 0,0
22.08.2019 09:00:00 17,3 13,6 13 7 21 11 W 1026,0 - 0,0
22.08.2019 08:00:00 16,0 12,7 8 4 23 12 SW 1025,8 - 0,0
22.08.2019 07:00:00 16,1 13,4 10 6 19 10 WSW 1025,4 - 0,0
22.08.2019 06:00:00 14,6 11,9 6 4 13 7 SW 1025,1 - 0,0
22.08.2019 05:00:00 14,8 11,6 5 3 15 8 SW 1025,0 20 0,0
22.08.2019 04:00:00 15,2 11,6 9 5 14 7 SSW 1025,4 - 0,0
22.08.2019 03:00:00 15,4 12,2 7 4 10 5 SSW 1025,7 - 0,0
22.08.2019 02:00:00 16,3 12,3 4 2 13 7 WSW 1025,8 - 0,0
22.08.2019 01:00:00 16,8 11,7 8 5 11 6 ESE 1025,8 - 0,0
22.08.2019 00:00:00 17,1 12,2 9 5 11 6 ESE 1026,3 - 0,0
21.08.2019 23:00:00 16,9 12,0 6 3 10 6 NE 1026,6 - 0,0
21.08.2019 22:00:00 17,1 12,2 8 4 10 6 NE 1026,7 - 0,0
21.08.2019 21:00:00 17,8 12,9 6 3 14 8 N 1026,6 - 0,0
21.08.2019 20:00:00 18,4 12,6 10 6 16 9 NNW 1026,5 20 0,0
21.08.2019 19:00:00 19,0 11,6 11 6 17 9 NNW 1026,4 - 0,0
21.08.2019 18:00:00 19,6 12,1 11 6 16 9 N 1026,8 - 0,0
21.08.2019 17:00:00 19,9 11,9 10 6 16 9 N 1026,9 25 0,0
21.08.2019 16:00:00 20,1 11,6 10 6 18 10 N 1027,2 - 0,0
21.08.2019 15:00:00 19,9 12,2 14 8 20 11 N 1027,6 - 0,0
21.08.2019 14:00:00 19,6 11,6 13 7 19 10 N 1027,8 10 0,0
21.08.2019 13:00:00 19,1 12,8 12 7 18 10 NNW 1028,2 - 0,0
21.08.2019 12:00:00 19,0 12,3 9 5 15 8 NNW 1028,5 - 0,0
21.08.2019 11:00:00 19,6 12,1 8 5 13 7 NW 1028,6 - 0,0
21.08.2019 10:00:00 18,7 13,1 3 2 10 6 SSW 1028,6 - 0,0
21.08.2019 09:00:00 17,0 14,1 3 2 9 5 S 1028,4 - 0,0
21.08.2019 08:00:00 14,3 12,8 6 3 13 7 SSW 1028,0 10 0,0
21.08.2019 07:00:00 13,8 12,7 8 4 11 6 SSW 1027,7 - 0,0
21.08.2019 06:00:00 14,5 12,9 7 4 13 7 SSW 1027,3 - 0,0
21.08.2019 05:00:00 14,5 12,5 9 5 13 7 SSW 1027,1 - 0,0
21.08.2019 04:00:00 15,1 13,1 6 4 16 9 SSW 1027,1 - 0,0
21.08.2019 03:00:00 14,7 13,1 10 5 21 11 SSW 1027,1 - 0,0
21.08.2019 02:00:00 14,5 12,7 14 7 22 12 SSW 1027,1 - 0,0
21.08.2019 01:00:00 14,6 12,5 14 8 22 12 SSW 1027,0 - 0,0
21.08.2019 00:00:00 15,8 12,4 15 8 24 13 SW 1026,9 - 0,0
20.08.2019 23:00:00 17,0 12,9 12 7 30 16 SW 1026,6 - 0,0
20.08.2019 22:00:00 17,1 12,4 17 9 30 16 SSW 1026,4 - 0,0
20.08.2019 21:00:00 17,6 11,6 21 12 33 18 SW 1026,0 - 0,0
20.08.2019 20:00:00 18,9 11,2 16 9 37 20 W 1025,4 25 0,0
20.08.2019 19:00:00 19,5 12,0 24 13 37 20 W 1025,0 - 0,0
20.08.2019 18:00:00 20,4 12,4 27 14 37 20 W 1024,5 - 0,0
20.08.2019 17:00:00 20,4 11,3 26 14 39 21 W 1024,1 25 0,0
20.08.2019 16:00:00 20,6 12,3 26 14 38 20 W 1023,9 - 0,0
20.08.2019 15:00:00 20,3 11,0 26 14 39 21 W 1023,7 - 0,0
20.08.2019 14:00:00 19,6 12,1 27 15 38 20 W 1023,3 - 0,0
20.08.2019 13:00:00 19,4 12,2 24 13 39 21 W 1023,0 - 0,0
20.08.2019 12:00:00 18,9 11,9 26 14 41 22 W 1022,9 - 0,0
20.08.2019 11:00:00 18,1 11,6 24 13 34 19 W 1022,8 10 0,0
20.08.2019 10:00:00 17,6 11,8 16 9 29 16 WSW 1022,3 - 0,0
20.08.2019 09:00:00 15,6 13,3 16 9 25 13 SSW 1021,9 - 0,0
20.08.2019 08:00:00 14,6 12,8 18 10 23 13 SSW 1021,5 10 0,0
20.08.2019 07:00:00 14,2 12,6 12 7 20 11 SSW 1020,9 - 0,0
20.08.2019 06:00:00 14,1 12,7 10 5 20 11 SW 1020,2 - 0,0
20.08.2019 05:00:00 14,2 12,6 13 7 19 11 SSW 1020,2 20 0,0
20.08.2019 04:00:00 14,8 13,0 11 6 22 12 SW 1019,9 - 0,0
20.08.2019 03:00:00 14,6 12,8 13 7 24 13 SSW 1020,0 - 0,0
20.08.2019 02:00:00 15,6 12,9 17 9 36 20 SSW 1019,8 - 0,0

tt = Température de l'air
td = dewpoint
ff = Vitesse du vent
fx = gusts
dd = Direction du vent
ppp = reduced air pressure
vv = visibility
rr = Quantités de précipitations

stations d'obs. à proximité